KOSEN 1
1 49402U 21102H   25343.55067322  .00011481  00000-0  48174-3 0  9994
2 49402  97.3472  24.5068 0015403 151.6922 208.5156 15.23527436225113
HO-113
1 50466U 21131B   25343.87287823  .00000937  00000-0  30465-3 0  9991
2 50466  98.5055  72.3087 0003277 317.9327  42.1609 14.41106076207846
SNUGLITE 2
1 52899U 22065F   25343.65789698  .00002496  00000-0  48722-3 0  9990
2 52899  98.1925 124.2081 0006419 256.6946 103.3540 14.63823145183268
UmKA 1 (RS40S)
1 57172U 23091G   25343.84208862  .00010664  00000-0  52447-3 0  9994
2 57172  97.5340  38.3188 0014865  62.5530 297.7213 15.18104781135251
CubeBel-2 (EU11S)
1 57175U 23091K   25343.83206146  .00020785  00000-0  86026-3 0  9994
2 57175  97.5340  40.7700 0012243  65.5347 294.7166 15.23902020135418
RS-38S
1 57189U 23091Z   25343.82702013  .00023071  00000-0  81392-3 0  9994
2 57189  97.5363  45.1910 0009020  32.8608 327.3191 15.29218233135688
SONATE-2
1 59112U 24043Q   25343.80313383  .00039125  00000-0  83232-3 0  9998
2 59112  97.5334 119.9449 0008966 172.4937 187.6447 15.44832354 98520
MO-122
1 60209U 24125G   25343.09929909  .00036419  00000-0  74576-3 0  9990
2 60209  97.2524 193.4693 0013842 191.9977 168.0945 15.45905039 80040
GRBBeta
1 60237U 24128C   25343.22940547  .00007009  00000-0  49290-3 0  9998
2 60237  61.9892 161.8361 0056339  95.9167 264.8350 15.04695739 77667
Curium One
1 60242U 24128H   25343.74723951  .00014282  00000-0  88315-3 0  9991
2 60242  61.9788 154.9723 0055995  93.0090 267.7413 15.08795889 77835
ROBUSTA-3A
1 60243U 24128J   25343.01991909  .00008971  00000-0  57075-3 0  9999
2 60243  61.9858 159.0490 0056162  90.2887 270.4642 15.08127662 77700
CatSat
1 60246U 24125J   25343.03684069  .00042007  00000-0  10250-2 0  9998
2 60246  97.2318 190.4620 0034001 157.5463 202.7280 15.40137778 77953
HYPERVIEW-1G (RS66S)
1 61772U 24199AP  25343.89793619  .00061427  00000-0  11893-2 0  9991
2 61772  97.3210 213.2977 0007908 250.4787 109.5609 15.47487870105170
AO-123
1 61781U 24199AY  25343.86385199  .00016847  00000-0  54837-3 0  9990
2 61781  97.3248 209.3454 0012866 267.4854  92.4915 15.31851769104904
ZIMSAT 2
1 61783U 24199BA  25343.86764416  .00250086  00000-0  18880-2 0  9997
2 61783  97.3086 216.6893 0003100 207.0050 153.1052 15.71713237108556
HADES-R (SO-124)
1 62690U 25009CK  25343.49190491  .00186768  00000-0  24845-2 0  9994
2 62690  97.3878  65.9895 0001131 232.8353 127.2799 15.57531633 50271
HYDRA-T
1 62692U 25009CM  25343.21728340  .00207670  00000-0  25976-2 0  9998
2 62692  97.3880  65.8978 0001322 252.1658 107.9455 15.59107807 50247
JINJUSat 1B
1 63210U 25052A   25343.44263117  .00024375  00000-0  93337-3 0  9990
2 63210  97.4195 235.6188 0005755  54.2452 305.9321 15.26525063 41087
NUSHSAT 1
1 63211U 25052B   25343.44020534  .00028077  00000-0  10415-2 0  9993
2 63211  97.4179 235.7338 0005804  57.2068 302.9729 15.27549478 41096
TEVEL2-4
1 63213U 25052D   25343.63622788  .00025873  00000-0  97931-3 0  9995
2 63213  97.4101 235.4871 0005238  69.4610 290.7190 15.26900263 41112
TEVEL2-5
1 63214U 25052E   25343.51046157  .00025245  00000-0  95799-3 0  9996
2 63214  97.4098 235.3504 0005180  69.8390 290.3405 15.26820369 41095
TEVEL2-6
1 63215U 25052F   25343.64874704  .00026147  00000-0  99324-3 0  9998
2 63215  97.4101 235.4758 0005271  69.3623 290.8181 15.26779157 41115
TEVEL2-1
1 63217U 25052H   25343.23189118  .00022973  00000-0  88241-3 0  9992
2 63217  97.4078 234.8760 0005447  79.5203 280.6649 15.26436695 41043
TEVEL2-3
1 63218U 25052J   25343.23114367  .00022580  00000-0  86687-3 0  9993
2 63218  97.4076 234.8807 0005444  80.1166 280.0687 15.26457113 41041
TEVEL2-2
1 63219U 25052K   25343.49487979  .00025500  00000-0  97843-3 0  9995
2 63219  97.4072 235.1376 0005494  79.4779 280.7079 15.26449393 41086
TEVEL2-9
1 63237U 25052AD  25343.45474385  .00024673  00000-0  98937-3 0  9993
2 63237  97.4137 234.8085 0009240  90.8123 269.4174 15.24958462 41040
TEVEL2-7
1 63238U 25052AE  25343.27145941  .00021760  00000-0  87731-3 0  9991
2 63238  97.4142 234.6021 0009331  91.5656 268.6651 15.24802020 41011
TEVEL2-8
1 63239U 25052AF  25342.68640467  .00022915  00000-0  92488-3 0  9997
2 63239  97.4138 234.0077 0009396  93.2743 266.9570 15.24753662 40926
HYDRA-W
1 63490U 25052BL  25343.52025389  .00086735  00000-0  20986-2 0  9993
2 63490  97.4062 237.2559 0011689  80.1376 280.1189 15.40731624 41226
HADES-ICM (SO-125)
1 63492U 25052BN  25343.25092669  .00079200  00000-0  20426-2 0  9998
2 63492  97.4068 236.7250 0011814  83.5547 276.7043 15.38813653 41166
Dragonfly
1 65729U 98067XH  25343.49474648  .00190953  00000-0  14915-2 0  9991
2 65729  51.6245 152.3636 0006537 255.9884 104.0387 15.70499103 12658
RSP-03
1 65732U 98067XL  25343.74387664  .00147964  00000-0  13107-2 0  9990
2 65732  51.6263 151.7840 0006023 230.5682 129.4781 15.67593888 12691
GHS-01
1 65733U 98067XM  25343.76966235  .00225395  00000-0  15642-2 0  9991
2 65733  51.6282 150.4557 0006938 260.0742  99.9474 15.73188946 12719
BOTAN
1 65942U 98067XP  25343.52026374  .00124109  00000-0  13805-2 0  9998
2 65942  51.6280 155.5477 0003501 212.8190 147.2587 15.61959609  9369
SPIRONE
1 66657U 25274H   25342.85561376  .00003729  00000-0  36917-3 0  9997
2 66657  97.7386 270.1280 0010976 290.7866  69.2177 14.92414576  1829
K-HERO
1 66660U 25274L   25343.72276337  .00004952  00000-0  48182-3 0  9994
2 66660  97.7389 270.9915 0012880 292.2854  67.6999 14.92933299  1955
CEVROSAT1
1 98526U 25248E   25313.13142326  .00000000  00000-0  19360-3 0    02
2 98526  45.4084 218.4764 0001315 254.8982 242.1062 15.17981583    02
